FW7828 Weather Reports


time (UTC)temp
C
wind
direction
speed
KPH
gust
KPH
rain 1hr
cm
rain 24hr
cm
rain mn
cm
humidity
%
barometer
mb
20240723052806 25 208 3.2 4.8 0.00 0.05 0.05 99 1016.0
20240723052306 25 182 3.2 4.8 0.00 0.05 0.05 99 1016.1
20240723051801 25 209 1.6 1.6 0.00 0.05 0.05 99 1015.9
20240723051240 25 175 3.2 4.8 0.00 0.05 0.05 99 1015.7
20240723050738 25 167 1.6 3.2 0.00 0.05 0.05 99 1015.8
20240723050236 25 182 6.4 9.7 0.00 0.05 0.05 99 1015.9
20240723045734 25 177 6.4 8.0 0.00 0.05 0.05 99 1016.0
20240723045233 25 167 4.8 4.8 0.00 0.05 0.05 99 1015.8
20240723044732 25 164 4.8 4.8 0.00 0.05 0.05 99 1016.0
20240723044230 25 181 4.8 4.8 0.00 0.05 0.05 99 1015.9
20240723043727 25 105 3.2 4.8 0.18 0.05 0.05 99 1016.0
20240723043226 25 168 1.6 4.8 0.18 0.05 0.05 99 1016.1
20240723042723 25 207 0.0 1.6 0.00 0.00 0.00 99 1016.1
20240723042221 25 219 0.0 0.0 0.00 0.00 0.00 99 1016.1
20240723041721 24 205 0.0 0.0 0.00 0.00 0.00 99 1016.3
20240723041219 24 161 4.8 9.7 0.10 0.00 0.00 99 1016.3
20240723040715 24 208 0.0 0.0 0.28 0.00 0.00 99 1016.3
20240723040213 24 218 0.0 1.6 0.28 0.00 0.00 99 1016.4
20240723035712 23 202 1.6 1.6 0.28 1.07 1.07 99 1016.7
20240723035212 23 331 0.0 0.0 0.46 1.04 1.04 99 1016.6
20240723034710 23 274 1.6 1.6 0.28 1.02 1.02 99 1017.0
20240723034209 23 226 0.0 0.0 0.28 0.99 0.99 99 1016.8
20240723033704 23 223 0.0 0.0 0.28 0.97 0.97 99 1016.8
20240723033204 23 227 1.6 1.6 0.10 0.94 0.94 99 1016.9
20240723032701 23 244 3.2 3.2 0.18 0.91 0.91 99 1017.0
20240723032159 23 249 1.6 1.6 0.18 0.91 0.91 99 1016.7
20240723031656 23 233 0.0 0.0 0.00 0.89 0.89 99 1016.8
20240723031154 23 291 1.6 1.6 0.00 0.89 0.89 99 1016.9
20240723030653 23 263 1.6 1.6 0.00 0.89 0.89 99 1017.0
20240723030152 23 223 1.6 3.2 0.10 0.89 0.89 99 1017.0
20240723025651 23 231 0.0 0.0 0.28 0.89 0.89 99 1016.8
20240723025150 23 234 0.0 0.0 0.28 0.86 0.86 99 1016.6
20240723024649 23 244 0.0 1.6 0.28 0.84 0.84 99 1016.5
20240723024148 23 202 1.6 1.6 0.28 0.81 0.81 99 1016.5
20240723023645 23 218 1.6 1.6 0.28 0.79 0.79 98 1016.6
20240723023145 23 167 4.8 8.0 0.18 0.76 0.76 99 1016.6
20240723022643 23 216 0.0 1.6 0.00 0.74 0.74 99 1016.6
20240723022142 23 235 0.0 0.0 0.00 0.74 0.74 99 1016.6
20240723021640 23 330 0.0 0.0 0.18 0.74 0.74 99 1016.5
20240723021139 23 316 0.0 0.0 0.18 0.74 0.74 99 1016.4
20240723020637 23 200 1.6 1.6 0.00 0.71 0.71 99 1016.0
20240723020136 23 208 0.0 0.0 0.00 0.71 0.71 99 1016.1
20240723015632 23 203 0.0 0.0 0.00 0.71 0.71 99 1016.2
20240723015131 23 218 0.0 0.0 0.00 0.71 0.71 99 1016.3
20240723014628 23 208 1.6 1.6 0.00 0.71 0.71 99 1016.1
20240723014127 23 216 0.0 0.0 0.00 0.71 0.71 99 1016.2
20240723013625 23 169 3.2 3.2 0.00 0.71 0.71 99 1016.0
20240723013123 23 198 3.2 3.2 0.00 0.71 0.71 99 1016.0
20240723012623 23 218 0.0 1.6 0.00 0.71 0.71 99 1015.8
20240723012120 23 223 0.0 0.0 0.10 0.71 0.71 99 1015.8
20240723011618 23 169 6.4 8.0 0.28 0.71 0.71 99 1015.8
20240723011116 23 218 0.0 1.6 0.89 0.71 0.71 99 1016.2
20240723010613 23 185 1.6 3.2 0.58 0.66 0.66 99 1016.3
20240723010111 23 198 1.6 1.6 0.00 0.56 0.56 99 1016.2
20240723005610 22 207 1.6 1.6 0.00 0.56 0.56 99 1016.1
20240723005108 23 227 1.6 1.6 0.10 0.56 0.56 99 1016.0
20240723004607 23 225 3.2 3.2 0.71 0.56 0.56 98 1016.0
20240723004105 23 216 4.8 4.8 1.98 0.53 0.53 98 1015.7
20240723003605 23 204 1.6 3.2 2.74 0.46 0.46 96 1015.8
20240723003105 25 331 6.4 9.7 1.37 0.23 0.23 91 1015.3
20240723002559 27 208 1.6 3.2 0.00 0.00 0.00 95 1014.8
20240723002057 27 161 6.4 9.7 0.00 0.00 0.00 94 1014.7
20240723001557 27 170 6.4 8.0 0.00 0.00 0.00 94 1014.9
20240723001056 27 152 8.0 9.7 0.00 0.00 0.00 93 1014.9
20240723000554 27 162 4.8 8.0 0.00 0.00 0.00 94 1015.0
20240723000053 27 185 1.6 1.6 0.00 0.00 0.00 94 1015.0
20240722235552 27 179 4.8 4.8 0.00 0.00 0.00 94 1015.0
20240722235051 27 187 4.8 4.8 0.00 0.00 0.00 93 1014.7
20240722234551 27 168 6.4 8.0 0.00 0.00 0.00 93 1014.7
20240722234049 27 178 3.2 8.0 0.00 0.00 0.00 93 1015.0
20240722233545 27 152 4.8 4.8 0.00 0.00 0.00 93 1014.8
20240722233044 27 188 4.8 4.8 0.00 0.00 0.00 93 1014.9
20240722232541 27 169 3.2 4.8 0.00 0.00 0.00 93 1014.8
20240722232040 27 161 1.6 3.2 0.00 0.00 0.00 92 1014.9
20240722231536 27 182 1.6 1.6 0.00 0.00 0.00 92 1015.1
20240722231036 27 174 4.8 8.0 0.00 0.00 0.00 93 1014.9
20240722230532 27 196 0.0 0.0 0.00 0.00 0.00 94 1014.9
20240722230031 27 179 4.8 4.8 0.00 0.00 0.00 93 1014.9
20240722225531 27 204 0.0 1.6 0.00 0.00 0.00 93 1015.0
20240722225029 27 208 0.0 0.0 0.00 0.00 0.00 93 1015.1
20240722224526 27 192 0.0 0.0 0.00 0.00 0.00 93 1015.1
20240722224025 27 201 0.0 1.6 0.00 0.00 0.00 93 1014.9
20240722223522 27 169 1.6 3.2 0.00 0.00 0.00 93 1014.8
20240722223021 27 182 1.6 1.6 0.00 0.00 0.00 92 1014.9
20240722222520 27 179 0.0 3.2 0.00 0.00 0.00 92 1015.2
20240722222019 27 303 1.6 1.6 0.00 0.00 0.00 92 1014.9
20240722221515 27 186 0.0 0.0 0.00 0.00 0.00 91 1014.9
20240722221014 27 161 3.2 8.0 0.00 0.00 0.00 92 1014.9
20240722220513 27 171 1.6 3.2 0.00 0.00 0.00 92 1014.7
20240722220013 27 192 0.0 1.6 0.00 0.00 0.00 92 1014.9
20240722215511 27 270 0.0 1.6 0.00 0.00 0.00 92 1014.9
20240722215010 27 157 1.6 3.2 0.00 0.00 0.00 93 1015.0
20240722214506 27 166 0.0 0.0 0.00 0.00 0.00 94 1014.7
20240722214006 27 189 1.6 3.2 0.00 0.00 0.00 92 1014.8
20240722213503 27 183 0.0 1.6 0.00 0.00 0.00 93 1014.8
20240722213000 27 194 0.0 0.0 0.00 0.00 0.00 94 1014.7
20240722212500 27 177 0.0 1.6 0.00 0.00 0.00 95 1014.7
20240722211958 27 176 1.6 3.2 0.00 0.00 0.00 94 1014.3
20240722211457 27 169 4.8 4.8 0.00 0.00 0.00 94 1014.4
20240722210956 27 182 4.8 8.0 0.00 0.00 0.00 94 1014.5
20240722210453 27 187 4.8 4.8 0.00 0.00 0.00 93 1014.5
20240722205953 28 173 4.8 4.8 0.00 0.00 0.00 92 1014.5
20240722205448 28 172 3.2 4.8 0.00 0.00 0.00 88 1014.5
20240722204946 28 165 6.4 8.0 0.00 0.00 0.00 88 1014.5
20240722204446 28 181 6.4 8.0 0.00 0.00 0.00 89 1014.6
20240722203944 28 173 1.6 3.2 0.00 0.00 0.00 90 1014.6
20240722203443 28 186 0.0 0.0 0.00 0.00 0.00 91 1014.5
20240722202942 28 169 0.0 3.2 0.00 0.00 0.00 89 1014.6
20240722202439 28 186 1.6 1.6 0.00 0.00 0.00 89 1014.4
20240722201939 28 186 1.6 1.6 0.00 0.00 0.00 88 1014.5
20240722201437 28 187 6.4 8.0 0.00 0.00 0.00 88 1014.8
20240722200935 28 167 4.8 4.8 0.00 0.00 0.00 88 1014.7
20240722200431 28 163 6.4 8.0 0.00 0.00 0.00 87 1014.7
20240722195931 28 163 6.4 8.0 0.00 0.00 0.00 86 1014.9
20240722195426 28 161 3.2 3.2 0.00 0.00 0.00 86 1015.3
20240722194924 28 197 1.6 1.6 0.00 0.00 0.00 86 1015.4
20240722194423 28 168 4.8 4.8 0.00 0.00 0.00 85 1015.2
20240722193922 28 157 3.2 3.2 0.00 0.00 0.00 83 1015.4
20240722193419 28 166 6.4 8.0 0.00 0.00 0.00 83 1015.3
20240722192919 28 181 8.0 9.7 0.00 0.00 0.00 83 1015.1
20240722192417 28 168 4.8 8.0 0.00 0.00 0.00 83 1014.8
20240722191917 29 177 6.4 8.0 0.00 0.00 0.00 84 1014.7
20240722191415 29 190 6.4 8.0 0.00 0.00 0.00 82 1014.9
20240722190915 30 175 6.4 8.0 0.00 0.00 0.00 79 1015.0
20240722190414 30 176 4.8 4.8 0.00 0.00 0.00 80 1015.3
20240722185913 30 166 4.8 4.8 0.00 0.00 0.00 77 1015.2
20240722185411 30 170 3.2 8.0 0.00 0.00 0.00 79 1015.2
20240722184909 30 172 4.8 4.8 0.00 0.00 0.00 77 1015.2
20240722184408 30 189 1.6 4.8 0.00 0.00 0.00 77 1015.5
20240722183907 31 180 4.8 4.8 0.00 0.00 0.00 77 1015.5
20240722183406 30 171 3.2 4.8 0.00 0.00 0.00 79 1015.5
20240722182904 30 160 8.0 12.9 0.00 0.00 0.00 80 1015.6
20240722182403 30 179 3.2 4.8 0.00 0.00 0.00 78 1015.8
20240722181900 30 180 3.2 4.8 0.00 0.00 0.00 81 1015.6
20240722181359 29 164 0.0 1.6 0.00 0.00 0.00 83 1015.6
20240722180856 29 186 3.2 3.2 0.00 0.00 0.00 82 1016.0
20240722180356 30 177 3.2 3.2 0.00 0.00 0.00 81 1015.6
20240722175854 30 168 3.2 3.2 0.00 0.00 0.00 79 1016.1
20240722175352 30 178 3.2 4.8 0.00 0.00 0.00 79 1016.2
20240722174848 30 175 1.6 3.2 0.00 0.00 0.00 80 1016.3
20240722174347 30 170 3.2 4.8 0.00 0.00 0.00 81 1016.2
20240722173846 30 179 4.8 4.8 0.00 0.00 0.00 81 1016.5
20240722173344 30 180 6.4 11.3 0.00 0.00 0.00 81 1016.6
20240722172841 30 164 3.2 3.2 0.00 0.00 0.00 83 1016.8
20240722172341 29 186 4.8 8.0 0.00 0.00 0.00 84 1016.7
20240722171839 29 169 4.8 4.8 0.00 0.00 0.00 84 1016.7
20240722171337 29 167 3.2 3.2 0.00 0.00 0.00 84 1016.6
20240722170835 29 162 3.2 3.2 0.00 0.00 0.00 82 1017.0
20240722170334 28 166 1.6 1.6 0.00 0.00 0.00 84 1016.8
20240722165833 28 170 0.0 0.0 0.00 0.00 0.00 85 1016.7
20240722165333 28 168 3.2 3.2 0.00 0.00 0.00 85 1016.8
20240722164831 28 358 1.6 1.6 0.00 0.00 0.00 86 1016.9
20240722164331 28 358 1.6 3.2 0.00 0.00 0.00 86 1016.9
20240722163829 29 354 0.0 1.6 0.00 0.00 0.00 84 1016.8
20240722163328 28 208 1.6 1.6 0.00 0.00 0.00 86 1017.0
20240722162827 28 173 0.0 1.6 0.00 0.00 0.00 85 1017.1
20240722162325 28 175 1.6 3.2 0.00 0.00 0.00 85 1016.9
20240722161824 28 186 1.6 1.6 0.00 0.00 0.00 84 1016.9
20240722161322 28 190 1.6 1.6 0.00 0.00 0.00 86 1017.2
20240722160822 29 100 1.6 3.2 0.00 0.00 0.00 83 1017.1
20240722160320 28 136 3.2 3.2 0.00 0.00 0.00 84 1017.3
20240722155818 28 149 1.6 3.2 0.00 0.00 0.00 82 1017.3
20240722155318 28 153 1.6 3.2 0.00 0.00 0.00 84 1017.5
20240722154816 28 191 0.0 0.0 0.00 0.00 0.00 85 1017.2
20240722154314 27 177 0.0 1.6 0.00 0.00 0.00 85 1017.5
20240722153813 28 184 0.0 1.6 0.00 0.00 0.00 86 1017.4
20240722153311 27 106 1.6 1.6 0.00 0.00 0.00 88 1017.4
20240722152810 27 106 1.6 1.6 0.00 0.00 0.00 88 1017.3
20240722152308 27 211 0.0 0.0 0.00 0.00 0.00 88 1017.4
20240722151806 27 172 1.6 1.6 0.00 0.00 0.00 90 1017.4
20240722151304 27 172 0.0 1.6 0.00 0.00 0.00 88 1017.3
20240722150801 27 176 1.6 1.6 0.00 0.00 0.00 89 1017.3
20240722150259 27 182 0.0 1.6 0.00 0.00 0.00 89 1017.3
20240722145758 27 187 1.6 1.6 0.00 0.00 0.00 88 1017.2
20240722145256 27 194 0.0 0.0 0.00 0.00 0.00 88 1017.2
20240722144755 26 185 1.6 1.6 0.00 0.00 0.00 90 1017.0
20240722144255 27 174 1.6 1.6 0.00 0.00 0.00 87 1017.2
20240722143753 27 229 0.0 1.6 0.00 0.00 0.00 89 1017.2
20240722143253 27 175 1.6 3.2 0.00 0.00 0.00 88 1017.2
20240722142751 27 200 0.0 0.0 0.00 0.00 0.00 88 1016.9
20240722142249 27 191 0.0 0.0 0.00 0.00 0.00 89 1017.0
20240722141749 26 175 0.0 0.0 0.00 0.00 0.00 89 1016.9
20240722141247 26 179 1.6 1.6 0.00 0.00 0.00 89 1017.1
20240722140743 26 179 1.6 1.6 0.00 0.00 0.00 89 1016.9
20240722140242 26 190 0.0 0.0 0.00 0.00 0.00 89 1017.1
20240722135740 26 168 3.2 3.2 0.00 0.00 0.00 88 1017.2
20240722135240 26 182 0.0 0.0 0.00 0.00 0.00 90 1017.3
20240722134738 26 175 0.0 0.0 0.00 0.00 0.00 90 1017.4
20240722134236 26 175 0.0 0.0 0.00 0.00 0.00 90 1017.4
20240722133735 26 142 1.6 1.6 0.00 0.00 0.00 89 1017.2
20240722133233 26 156 1.6 1.6 0.00 0.00 0.00 91 1017.2
20240722132733 26 208 1.6 1.6 0.00 0.00 0.00 94 1017.4
20240722132231 25 182 0.0 0.0 0.00 0.00 0.00 94 1017.4
20240722131730 25 212 0.0 0.0 0.00 0.00 0.00 95 1017.5
20240722131229 25 211 0.0 0.0 0.00 0.00 0.00 95 1017.2
20240722130728 25 164 1.6 1.6 0.00 0.00 0.00 96 1017.4
20240722130226 25 177 0.0 0.0 0.00 0.00 0.00 97 1017.5
20240722125723 25 189 0.0 0.0 0.00 0.00 0.00 97 1017.5
20240722125221 25 179 0.0 0.0 0.00 0.00 0.00 97 1017.3
20240722124721 25 185 0.0 0.0 0.00 0.00 0.00 98 1017.5
20240722124219 25 207 1.6 1.6 0.00 0.00 0.00 97 1017.4
20240722123716 25 172 0.0 0.0 0.00 0.00 0.00 98 1017.1
20240722123215 25 201 0.0 0.0 0.00 0.00 0.00 98 1017.4
20240722122714 25 211 0.0 0.0 0.00 0.00 0.00 98 1017.1
20240722122212 25 211 0.0 0.0 0.00 0.00 0.00 98 1017.0
20240722121711 25 212 1.6 1.6 0.00 0.00 0.00 97 1017.1
20240722121208 25 178 0.0 0.0 0.00 0.00 0.00 97 1017.1
20240722120705 25 178 0.0 0.0 0.00 0.00 0.00 97 1017.0
20240722120204 25 178 0.0 0.0 0.00 0.00 0.00 97 1017.0
20240722115703 25 178 0.0 0.0 0.00 0.00 0.00 97 1016.8
20240722115201 25 178 0.0 0.0 0.00 0.00 0.00 97 1016.9
20240722114700 25 178 0.0 0.0 0.00 0.00 0.00 97 1016.7
20240722114158 25 178 0.0 0.0 0.00 0.00 0.00 97 1016.5
20240722113655 25 178 0.0 0.0 0.00 0.00 0.00 97 1016.5
20240722113153 25 178 0.0 0.0 0.00 0.00 0.00 97 1016.4
20240722112651 25 178 0.0 0.0 0.00 0.00 0.00 97 1016.5
20240722112148 25 178 0.0 0.0 0.00 0.00 0.00 97 1016.3
20240722111647 25 142 0.0 0.0 0.00 0.00 0.00 96 1016.3
20240722111145 25 246 0.0 0.0 0.00 0.00 0.00 96 1016.6
20240722110644 25 205 0.0 0.0 0.00 0.00 0.00 96 1016.5
20240722110142 25 205 0.0 0.0 0.00 0.00 0.00 96 1016.6
20240722105642 25 227 0.0 0.0 0.00 0.00 0.00 95 1016.8
20240722105140 25 187 0.0 1.6 0.00 0.00 0.00 95 1016.4
20240722104640 25 254 0.0 0.0 0.00 0.00 0.00 95 1016.5
20240722104140 25 149 0.0 0.0 0.00 0.00 0.00 96 1016.4
20240722103638 25 164 0.0 0.0 0.00 0.00 0.00 96 1016.3
20240722103137 25 82 0.0 1.6 0.00 0.00 0.00 96 1016.0
20240722102636 25 160 3.2 3.2 0.00 0.00 0.00 96 1016.1
20240722102135 25 260 0.0 0.0 0.00 0.00 0.00 96 1015.9
20240722101634 25 161 1.6 3.2 0.00 0.00 0.00 97 1016.0
20240722101132 25 125 0.0 1.6 0.00 0.00 0.00 98 1015.9
20240722100632 25 227 0.0 0.0 0.00 0.00 0.00 98 1016.0
20240722100128 25 255 0.0 0.0 0.00 0.00 0.00 98 1016.1
20240722095627 25 234 0.0 0.0 0.00 0.00 0.00 98 1016.0
20240722095125 25 256 0.0 0.0 0.00 0.00 0.00 98 1015.8
20240722094623 25 276 0.0 0.0 0.00 0.00 0.00 98 1015.7
20240722094121 25 264 1.6 1.6 0.00 0.00 0.00 98 1016.0
20240722093618 25 58 0.0 1.6 0.00 0.00 0.00 98 1015.8
20240722093118 25 40 0.0 0.0 0.00 0.00 0.00 98 1015.7
20240722092616 25 24 0.0 0.0 0.00 0.00 0.00 98 1015.7
20240722092115 25 62 3.2 3.2 0.00 0.00 0.00 98 1015.9
20240722091615 25 256 0.0 0.0 0.00 0.00 0.00 98 1015.6
20240722091115 25 270 0.0 1.6 0.00 0.00 0.00 98 1015.8
20240722090614 25 331 1.6 1.6 0.00 0.00 0.00 98 1015.8
20240722090111 25 249 0.0 0.0 0.00 0.00 0.00 98 1015.6
20240722085609 25 266 1.6 1.6 0.00 0.00 0.00 98 1015.6
20240722085106 25 246 0.0 1.6 0.00 0.00 0.00 98 1015.6
20240722084605 25 258 0.0 0.0 0.00 0.00 0.00 98 1015.9
20240722084105 25 246 0.0 0.0 0.00 0.00 0.00 98 1015.7
20240722083605 25 304 3.2 3.2 0.00 0.00 0.00 98 1015.9
20240722083104 25 256 0.0 0.0 0.00 0.00 0.00 98 1015.8
20240722082602 25 259 0.0 0.0 0.00 0.00 0.00 98 1015.8
20240722082100 25 246 0.0 0.0 0.00 0.00 0.00 97 1015.8
20240722081557 25 246 0.0 0.0 0.00 0.00 0.00 97 1015.9
20240722081056 25 258 0.0 0.0 0.00 0.00 0.00 97 1015.9
20240722080554 25 231 1.6 1.6 0.00 0.00 0.00 97 1016.2
20240722080053 25 34 0.0 1.6 0.00 0.00 0.00 97 1016.1
20240722075552 25 226 1.6 1.6 0.00 0.00 0.00 97 1016.0
20240722075050 25 208 0.0 0.0 0.00 0.00 0.00 97 1015.9
20240722074549 25 283 1.6 3.2 0.00 0.00 0.00 97 1016.2
20240722074048 25 268 1.6 3.2 0.00 0.00 0.00 97 1016.0
20240722073546 25 246 0.0 1.6 0.00 0.00 0.00 98 1016.3
20240722073044 25 253 0.0 0.0 0.00 0.00 0.00 98 1016.1
20240722072543 25 274 0.0 0.0 0.00 0.00 0.00 98 1016.1
20240722072041 25 252 0.0 0.0 0.00 0.00 0.00 99 1016.2
20240722071537 25 246 0.0 1.6 0.00 0.00 0.00 99 1016.1
20240722071036 25 269 1.6 3.2 0.00 0.00 0.00 99 1016.4
20240722070535 25 273 1.6 1.6 0.00 0.00 0.00 99 1016.2
20240722070033 25 255 1.6 1.6 0.00 0.00 0.00 99 1016.2
20240722065530 25 235 0.0 0.0 0.00 0.00 0.00 99 1016.5
20240722065030 25 8 0.0 0.0 0.00 0.00 0.00 99 1016.4
20240722064527 25 193 4.8 8.0 0.00 0.00 0.00 99 1016.6
20240722064026 25 238 0.0 0.0 0.00 0.00 0.00 99 1016.3
20240722063521 25 231 0.0 0.0 0.00 0.00 0.00 99 1016.4
20240722063021 25 227 1.6 1.6 0.00 0.00 0.00 99 1016.5
20240722062518 25 269 0.0 1.6 0.00 0.00 0.00 99 1016.6
20240722062018 25 239 0.0 0.0 0.00 0.00 0.00 99 1016.5
20240722061516 25 270 1.6 1.6 0.00 0.00 0.00 99 1016.6
20240722061014 25 264 0.0 0.0 0.00 0.00 0.00 99 1016.7
20240722060514 25 264 0.0 0.0 0.00 0.00 0.00 99 1016.8
20240722060013 25 264 0.0 0.0 0.00 0.00 0.00 99 1016.7
20240722055510 25 264 0.0 0.0 0.00 0.00 0.00 99 1016.9
20240722055008 25 260 0.0 0.0 0.00 0.00 0.00 99 1016.9
20240722054507 25 265 0.0 0.0 0.00 0.00 0.00 99 1016.8
20240722054005 25 264 0.0 0.0 0.00 0.00 0.00 99 1016.9
20240722053502 25 254 0.0 0.0 0.00 0.00 0.00 99 1016.9
20240722053000 25 264 0.0 0.0 0.00 0.00 0.00 99 1016.8